Location: Le Rocchette
(44.3500°N, 7.8333°E)
Time: 14:46:19
(UTC+00:00)

PSLV R/B - Pass Details

Date: 21 February 2020
Orbit: 505 x 578 km, 97.8° (Epoch: 09 April)

Event Time Altitude Azimuth Distance (km) Brightness Sun altitude
Rises 04:56:43 0° 9° (N) 2,633 7.4 -15.6°
Reaches altitude 10° 04:58:49 10° 7° (N) 1,750 6.5 -15.3°
Maximum altitude 05:02:32 65° 286° (WNW) 577 3.6 -14.6°
Drops below altitude 10° 05:06:19 10° 204° (SSW) 1,770 6.2 -13.9°
Sets 05:08:27 0° 201° (SSW) 2,667 7.1 -13.5°
